Time,TemperatureF,DewpointF,PressureIn,WindDirection,WindDirectionDegrees,WindSpeedMPH,WindSpeedGustMPH,Humidity,HourlyPrecipIn,Conditions,Clouds,dailyrainin,SoftwareType,DateUTC
2013-03-14 00:00:00,50.3,39.0,30.32,SE,135,0.0,0.0,65,0.00,,,0.00,Wunderground v.1.15,2013-03-14 05:00:00,
2013-03-14 00:05:00,50.1,38.8,30.31,SE,135,0.0,0.0,65,0.00,,,0.00,Wunderground v.1.15,2013-03-14 05:05:00,
2013-03-14 00:15:00,49.8,38.5,30.31,SE,135,0.0,0.0,65,0.00,,,0.00,Wunderground v.1.15,2013-03-14 05:15:00,
2013-03-14 00:20:00,49.6,38.7,30.31,SE,135,0.0,0.0,66,0.00,,,0.00,Wunderground v.1.15,2013-03-14 05:20:00,
2013-03-14 00:25:00,49.4,38.5,30.31,SE,135,0.0,0.0,66,0.00,,,0.00,Wunderground v.1.15,2013-03-14 05:25:00,
2013-03-14 00:30:00,49.2,38.7,30.31,SE,135,0.0,0.0,67,0.00,,,0.00,Wunderground v.1.15,2013-03-14 05:30:00,
2013-03-14 00:35:00,49.1,39.0,30.31,SE,135,0.0,0.0,68,0.00,,,0.00,Wunderground v.1.15,2013-03-14 05:35:00,
2013-03-14 00:45:00,48.9,38.4,30.31,SE,135,0.0,0.0,67,0.00,,,0.00,Wunderground v.1.15,2013-03-14 05:45:00,
2013-03-14 00:50:00,48.8,38.7,30.31,SE,135,0.0,0.0,68,0.00,,,0.00,Wunderground v.1.15,2013-03-14 05:50:00,
2013-03-14 00:55:00,48.6,38.5,30.31,SE,135,0.0,0.0,68,0.00,,,0.00,Wunderground v.1.15,2013-03-14 05:55:00,
2013-03-14 01:00:00,48.7,38.6,30.31,SE,135,0.0,0.0,68,0.00,,,0.00,Wunderground v.1.15,2013-03-14 06:00:00,
2013-03-14 01:10:00,48.5,38.4,30.31,SE,135,0.0,0.0,68,0.00,,,0.00,Wunderground v.1.15,2013-03-14 06:10:00,
2013-03-14 01:15:00,48.4,37.9,30.30,SE,135,0.0,0.0,67,0.00,,,0.00,Wunderground v.1.15,2013-03-14 06:15:00,
2013-03-14 01:25:00,48.1,38.0,30.31,SE,135,0.0,0.0,68,0.00,,,0.00,Wunderground v.1.15,2013-03-14 06:25:00,
2013-03-14 01:30:00,48.1,38.0,30.31,SE,135,0.0,0.0,68,0.00,,,0.00,Wunderground v.1.15,2013-03-14 06:30:00,
2013-03-14 01:35:00,48.0,37.9,30.31,SE,135,0.0,0.0,68,0.00,,,0.00,Wunderground v.1.15,2013-03-14 06:35:00,
2013-03-14 01:45:00,47.9,38.2,30.31,SE,135,0.0,0.0,69,0.00,,,0.00,Wunderground v.1.15,2013-03-14 06:45:00,
2013-03-14 01:50:00,47.8,38.1,30.31,SE,135,0.0,0.0,69,0.00,,,0.00,Wunderground v.1.15,2013-03-14 06:50:00,
2013-03-14 01:55:00,47.6,37.9,30.31,SE,135,0.0,0.0,69,0.00,,,0.00,Wunderground v.1.15,2013-03-14 06:55:00,
2013-03-14 02:00:00,47.6,37.9,30.31,SE,135,0.0,0.0,69,0.00,,,0.00,Wunderground v.1.15,2013-03-14 07:00:00,
2013-03-14 02:10:00,47.3,37.6,30.31,SE,135,0.0,0.0,69,0.00,,,0.00,Wunderground v.1.15,2013-03-14 07:10:00,
2013-03-14 02:15:00,47.3,38.0,30.31,SE,135,0.0,0.0,70,0.00,,,0.00,Wunderground v.1.15,2013-03-14 07:15:00,
2013-03-14 02:20:00,47.3,38.0,30.31,SE,135,0.0,0.0,70,0.00,,,0.00,Wunderground v.1.15,2013-03-14 07:20:00,
2013-03-14 02:25:00,47.3,37.6,30.31,SE,135,0.0,0.0,69,0.00,,,0.00,Wunderground v.1.15,2013-03-14 07:25:00,
2013-03-14 02:35:00,47.1,37.4,30.31,SE,135,0.0,0.0,69,0.00,,,0.00,Wunderground v.1.15,2013-03-14 07:35:00,
2013-03-14 02:40:00,47.0,37.4,30.31,SE,135,0.0,0.0,69,0.00,,,0.00,Wunderground v.1.15,2013-03-14 07:40:00,
2013-03-14 02:45:00,47.0,37.7,30.31,SE,135,0.0,0.0,70,0.00,,,0.00,Wunderground v.1.15,2013-03-14 07:45:00,
2013-03-14 02:50:00,46.9,37.6,30.31,SE,135,0.0,0.0,70,0.00,,,0.00,Wunderground v.1.15,2013-03-14 07:50:00,
2013-03-14 03:00:00,46.9,37.6,30.31,SE,135,1.0,4.0,70,0.00,,,0.00,Wunderground v.1.15,2013-03-14 08:00:00,
2013-03-14 03:10:00,46.9,37.3,30.31,SE,135,2.0,2.0,69,0.00,,,0.00,Wunderground v.1.15,2013-03-14 08:10:00,
2013-03-14 03:20:00,46.8,37.2,30.31,SE,135,2.0,2.0,69,0.00,,,0.00,Wunderground v.1.15,2013-03-14 08:20:00,
2013-03-14 03:25:00,46.7,37.4,30.31,SE,135,2.0,2.0,70,0.00,,,0.00,Wunderground v.1.15,2013-03-14 08:25:00,
2013-03-14 03:30:00,46.5,37.2,30.31,SE,135,2.0,2.0,70,0.00,,,0.00,Wunderground v.1.15,2013-03-14 08:30:00,
2013-03-14 03:35:00,46.4,37.1,30.31,SE,135,2.0,2.0,70,0.00,,,0.00,Wunderground v.1.15,2013-03-14 08:35:00,
2013-03-14 03:40:00,46.3,37.4,30.31,SE,135,2.0,2.0,71,0.00,,,0.00,Wunderground v.1.15,2013-03-14 08:40:00,
2013-03-14 03:50:00,46.3,37.8,30.31,SE,135,2.0,2.0,72,0.00,,,0.00,Wunderground v.1.15,2013-03-14 08:50:00,
2013-03-14 03:55:00,46.2,37.3,30.31,SE,135,2.0,2.0,71,0.00,,,0.00,Wunderground v.1.15,2013-03-14 08:55:00,
2013-03-14 04:00:00,46.0,37.5,30.30,SE,135,2.0,2.0,72,0.00,,,0.00,Wunderground v.1.15,2013-03-14 09:00:00,
2013-03-14 04:10:00,45.7,37.2,30.30,SE,135,2.0,2.0,72,0.00,,,0.00,Wunderground v.1.15,2013-03-14 09:10:00,
2013-03-14 04:15:00,45.5,37.3,30.30,SE,135,2.0,2.0,73,0.00,,,0.00,Wunderground v.1.15,2013-03-14 09:15:00,
2013-03-14 04:20:00,45.3,37.2,30.30,SE,135,2.0,4.0,73,0.00,,,0.00,Wunderground v.1.15,2013-03-14 09:20:00,
2013-03-14 04:30:00,44.9,37.1,30.29,SE,135,3.0,3.0,74,0.00,,,0.00,Wunderground v.1.15,2013-03-14 09:30:00,
2013-03-14 04:35:00,44.7,37.3,30.29,SE,135,3.0,3.0,75,0.00,,,0.00,Wunderground v.1.15,2013-03-14 09:35:00,
2013-03-14 04:40:00,44.6,37.2,30.29,SE,135,2.0,2.0,75,0.00,,,0.00,Wunderground v.1.15,2013-03-14 09:40:00,
2013-03-14 04:45:00,44.5,37.1,30.29,SE,135,2.0,2.0,75,0.00,,,0.00,Wunderground v.1.15,2013-03-14 09:45:00,
2013-03-14 04:50:00,44.3,37.2,30.29,SE,135,3.0,5.0,76,0.00,,,0.00,Wunderground v.1.15,2013-03-14 09:50:00,
2013-03-14 05:00:00,44.0,36.9,30.29,SE,135,4.0,5.0,76,0.00,,,0.00,Wunderground v.1.15,2013-03-14 10:00:00,
2013-03-14 05:10:00,44.0,36.9,30.28,SE,137,4.0,5.0,76,0.00,,,0.00,Wunderground v.1.15,2013-03-14 10:10:00,
2013-03-14 05:15:00,44.2,37.4,30.28,SE,138,4.0,7.0,77,0.00,,,0.00,Wunderground v.1.15,2013-03-14 10:15:00,
2013-03-14 05:20:00,44.4,37.3,30.28,SE,138,4.0,4.0,76,0.00,,,0.00,Wunderground v.1.15,2013-03-14 10:20:00,
2013-03-14 05:25:00,44.6,37.5,30.28,SE,138,4.0,4.0,76,0.00,,,0.00,Wunderground v.1.15,2013-03-14 10:25:00,
2013-03-14 05:30:00,44.9,37.5,30.28,SE,139,4.0,4.0,75,0.00,,,0.00,Wunderground v.1.15,2013-03-14 10:30:00,
2013-03-14 05:35:00,45.0,37.6,30.28,SE,142,4.0,5.0,75,0.00,,,0.00,Wunderground v.1.15,2013-03-14 10:35:00,
2013-03-14 05:45:00,45.5,38.0,30.28,SSE,148,5.0,6.0,75,0.00,,,0.00,Wunderground v.1.15,2013-03-14 10:45:00,
2013-03-14 05:50:00,45.8,38.3,30.28,SSE,150,5.0,5.0,75,0.00,,,0.00,Wunderground v.1.15,2013-03-14 10:50:00,
2013-03-14 05:55:00,46.1,38.3,30.28,SSE,150,4.0,5.0,74,0.00,,,0.00,Wunderground v.1.15,2013-03-14 10:55:00,
2013-03-14 06:00:00,46.3,38.1,30.28,SSE,150,2.0,2.0,73,0.00,,,0.00,Wunderground v.1.15,2013-03-14 11:00:00,
2013-03-14 06:10:00,46.6,38.4,30.28,SSE,153,2.0,4.0,73,0.00,,,0.00,Wunderground v.1.15,2013-03-14 11:10:00,
2013-03-14 06:15:00,46.8,38.2,30.28,SSE,153,3.0,4.0,72,0.00,,,0.00,Wunderground v.1.15,2013-03-14 11:15:00,
2013-03-14 06:25:00,46.8,38.2,30.28,SSE,153,2.0,5.0,72,0.00,,,0.00,Wunderground v.1.15,2013-03-14 11:25:00,
2013-03-14 06:30:00,46.7,38.1,30.28,SSE,153,1.0,1.0,72,0.00,,,0.00,Wunderground v.1.15,2013-03-14 11:30:00,
2013-03-14 06:35:00,46.6,38.4,30.28,SSE,153,0.0,1.0,73,0.00,,,0.00,Wunderground v.1.15,2013-03-14 11:35:00,
2013-03-14 06:40:00,46.6,38.4,30.29,SSE,156,1.0,1.0,73,0.00,,,0.00,Wunderground v.1.15,2013-03-14 11:40:00,
2013-03-14 06:45:00,46.6,38.4,30.29,SSE,156,1.0,1.0,73,0.00,,,0.00,Wunderground v.1.15,2013-03-14 11:45:00,
2013-03-14 06:55:00,46.8,38.6,30.29,SSE,159,3.0,4.0,73,0.00,,,0.00,Wunderground v.1.15,2013-03-14 11:55:00,
2013-03-14 07:00:00,47.0,38.8,30.29,SSE,159,3.0,3.0,73,0.00,,,0.00,Wunderground v.1.15,2013-03-14 12:00:00,
2013-03-14 07:10:00,47.1,38.9,30.29,SSE,159,2.0,5.0,73,0.00,,,0.00,Wunderground v.1.15,2013-03-14 12:10:00,
2013-03-14 07:15:00,47.1,38.9,30.29,SSE,159,3.0,5.0,73,0.00,,,0.00,Wunderground v.1.15,2013-03-14 12:15:00,
2013-03-14 07:20:00,47.0,38.8,30.30,SSE,159,3.0,3.0,73,0.00,,,0.00,Wunderground v.1.15,2013-03-14 12:20:00,
2013-03-14 07:25:00,47.0,38.8,30.29,SSE,159,2.0,3.0,73,0.00,,,0.00,Wunderground v.1.15,2013-03-14 12:25:00,
2013-03-14 07:30:00,47.0,38.8,30.30,SSE,159,0.0,0.0,73,0.00,,,0.00,Wunderground v.1.15,2013-03-14 12:30:00,
2013-03-14 07:40:00,46.8,38.9,30.30,SSE,160,1.0,4.0,74,0.00,,,0.00,Wunderground v.1.15,2013-03-14 12:40:00,
2013-03-14 07:45:00,46.6,38.8,30.30,SSE,161,2.0,4.0,74,0.00,,,0.00,Wunderground v.1.15,2013-03-14 12:45:00,
2013-03-14 07:50:00,46.6,38.8,30.30,SSE,160,3.0,6.0,74,0.00,,,0.00,Wunderground v.1.15,2013-03-14 12:50:00,
2013-03-14 07:55:00,46.6,39.1,30.30,SSE,161,4.0,8.0,75,0.00,,,0.00,Wunderground v.1.15,2013-03-14 12:55:00,
2013-03-14 08:00:00,46.8,39.3,30.31,SSE,159,5.0,6.0,75,0.00,,,0.00,Wunderground v.1.15,2013-03-14 13:00:00,
2013-03-14 08:10:00,47.1,39.2,30.31,SSE,167,4.0,4.0,74,0.00,,,0.00,Wunderground v.1.15,2013-03-14 13:10:00,
2013-03-14 08:15:00,47.2,39.3,30.31,SSE,157,4.0,4.0,74,0.00,,,0.00,Wunderground v.1.15,2013-03-14 13:15:00,
2013-03-14 08:25:00,47.5,39.6,30.32,South,173,5.0,6.0,74,0.00,,,0.00,Wunderground v.1.15,2013-03-14 13:25:00,
2013-03-14 08:30:00,47.8,39.6,30.32,SSE,168,5.0,5.0,73,0.00,,,0.00,Wunderground v.1.15,2013-03-14 13:30:00,
2013-03-14 08:35:00,48.1,39.9,30.32,SSE,168,3.0,6.0,73,0.00,,,0.00,Wunderground v.1.15,2013-03-14 13:35:00,
2013-03-14 08:40:00,48.3,40.0,30.32,SSE,167,3.0,4.0,73,0.00,,,0.00,Wunderground v.1.15,2013-03-14 13:40:00,
2013-03-14 08:50:00,49.1,40.1,30.32,South,169,5.0,6.0,71,0.00,,,0.00,Wunderground v.1.15,2013-03-14 13:50:00,
2013-03-14 08:55:00,49.6,40.2,30.33,South,191,5.0,6.0,70,0.00,,,0.00,Wunderground v.1.15,2013-03-14 13:55:00,
2013-03-14 09:00:00,50.0,40.6,30.33,South,183,5.0,8.0,70,0.00,,,0.00,Wunderground v.1.15,2013-03-14 14:00:00,
2013-03-14 09:10:00,51.2,41.0,30.33,SSE,166,5.0,5.0,68,0.00,,,0.00,Wunderground v.1.15,2013-03-14 14:10:00,
2013-03-14 09:15:00,52.5,41.5,30.34,South,175,5.0,6.0,66,0.00,,,0.00,Wunderground v.1.15,2013-03-14 14:15:00,
2013-03-14 09:20:00,53.3,41.0,30.34,South,184,6.0,10.0,63,0.00,,,0.00,Wunderground v.1.15,2013-03-14 14:20:00,
2013-03-14 09:25:00,53.9,41.2,30.34,SSW,196,6.0,10.0,62,0.00,,,0.00,Wunderground v.1.15,2013-03-14 14:25:00,
2013-03-14 09:35:00,55.0,41.8,30.34,SSE,161,6.0,6.0,61,0.00,,,0.00,Wunderground v.1.15,2013-03-14 14:35:00,
2013-03-14 09:40:00,55.7,42.0,30.34,SSW,202,6.0,8.0,60,0.00,,,0.00,Wunderground v.1.15,2013-03-14 14:40:00,
2013-03-14 09:45:00,56.0,42.3,30.34,South,178,7.0,8.0,60,0.00,,,0.00,Wunderground v.1.15,2013-03-14 14:45:00,
2013-03-14 09:50:00,56.6,42.0,30.34,SSW,207,7.0,9.0,58,0.00,,,0.00,Wunderground v.1.15,2013-03-14 14:50:00,
2013-03-14 09:55:00,56.9,42.7,30.34,South,169,7.0,9.0,59,0.00,,,0.00,Wunderground v.1.15,2013-03-14 14:55:00,
2013-03-14 10:00:00,57.2,43.0,30.34,SSW,194,7.0,7.0,59,0.00,,,0.00,Wunderground v.1.15,2013-03-14 15:00:00,
2013-03-14 10:10:00,58.6,43.4,30.34,South,187,7.0,7.0,57,0.00,,,0.00,Wunderground v.1.15,2013-03-14 15:10:00,
2013-03-14 10:15:00,59.2,43.0,30.34,South,186,8.0,13.0,55,0.00,,,0.00,Wunderground v.1.15,2013-03-14 15:15:00,
2013-03-14 10:25:00,60.3,45.0,30.34,SSW,201,7.0,9.0,57,0.00,,,0.00,Wunderground v.1.15,2013-03-14 15:25:00,
2013-03-14 10:30:00,61.1,44.8,30.34,SSW,202,6.0,9.0,55,0.00,,,0.00,Wunderground v.1.15,2013-03-14 15:30:00,
2013-03-14 10:35:00,61.3,44.0,30.33,SSW,207,8.0,9.0,53,0.00,,,0.00,Wunderground v.1.15,2013-03-14 15:35:00,
2013-03-14 10:40:00,61.9,45.1,30.34,SSW,196,8.0,8.0,54,0.00,,,0.00,Wunderground v.1.15,2013-03-14 15:40:00,
2013-03-14 10:50:00,63.1,45.2,30.33,SSW,209,8.0,8.0,52,0.00,,,0.00,Wunderground v.1.15,2013-03-14 15:50:00,
2013-03-14 10:55:00,64.5,44.9,30.33,South,187,7.0,8.0,49,0.00,,,0.00,Wunderground v.1.15,2013-03-14 15:55:00,
2013-03-14 11:00:00,65.0,44.8,30.33,SSW,213,7.0,11.0,48,0.00,,,0.00,Wunderground v.1.15,2013-03-14 16:00:00,
2013-03-14 11:10:00,66.9,44.3,30.33,SSW,211,7.0,12.0,44,0.00,,,0.00,Wunderground v.1.15,2013-03-14 16:10:00,
2013-03-14 11:15:00,67.0,43.1,30.32,SW,234,8.0,12.0,42,0.00,,,0.00,Wunderground v.1.15,2013-03-14 16:15:00,
2013-03-14 11:20:00,67.3,42.8,30.32,SSW,205,9.0,9.0,41,0.00,,,0.00,Wunderground v.1.15,2013-03-14 16:20:00,
2013-03-14 11:30:00,67.2,42.0,30.32,South,181,13.0,13.0,40,0.00,,,0.00,Wunderground v.1.15,2013-03-14 16:30:00,
2013-03-14 11:35:00,67.6,41.7,30.31,SSW,209,12.0,13.0,39,0.00,,,0.00,Wunderground v.1.15,2013-03-14 16:35:00,
2013-03-14 11:40:00,67.8,41.9,30.31,SW,225,12.0,12.0,39,0.00,,,0.00,Wunderground v.1.15,2013-03-14 16:40:00,
2013-03-14 11:45:00,68.0,42.1,30.31,SSW,196,12.0,14.0,39,0.00,,,0.00,Wunderground v.1.15,2013-03-14 16:45:00,
2013-03-14 11:50:00,68.0,41.4,30.31,SSW,196,13.0,13.0,38,0.00,,,0.00,Wunderground v.1.15,2013-03-14 16:50:00,
2013-03-14 12:00:00,68.8,41.5,30.31,South,183,12.0,13.0,37,0.00,,,0.00,Wunderground v.1.15,2013-03-14 17:00:00,
2013-03-14 12:10:00,69.6,42.2,30.30,SSW,202,12.0,12.0,37,0.00,,,0.00,Wunderground v.1.15,2013-03-14 17:10:00,
2013-03-14 12:15:00,69.7,42.9,30.30,SSW,201,13.0,13.0,38,0.00,,,0.00,Wunderground v.1.15,2013-03-14 17:15:00,
2013-03-14 12:20:00,70.5,43.0,30.30,South,190,11.0,11.0,37,0.00,,,0.00,Wunderground v.1.15,2013-03-14 17:20:00,
2013-03-14 12:25:00,70.4,44.3,30.30,South,182,11.0,11.0,39,0.00,,,0.00,Wunderground v.1.15,2013-03-14 17:25:00,
2013-03-14 12:35:00,71.2,44.3,30.30,SW,227,9.0,10.0,38,0.00,,,0.00,Wunderground v.1.15,2013-03-14 17:35:00,
2013-03-14 12:40:00,71.7,44.0,30.30,SW,225,9.0,10.0,37,0.00,,,0.00,Wunderground v.1.15,2013-03-14 17:40:00,
2013-03-14 12:45:00,72.0,46.3,30.30,SSW,206,8.0,14.0,40,0.00,,,0.00,Wunderground v.1.15,2013-03-14 17:45:00,
2013-03-14 12:50:00,72.3,43.8,30.30,South,188,8.0,8.0,36,0.00,,,0.00,Wunderground v.1.15,2013-03-14 17:50:00,
2013-03-14 13:00:00,72.6,44.1,30.29,South,191,9.0,9.0,36,0.00,,,0.00,Wunderground v.1.15,2013-03-14 18:00:00,
2013-03-14 13:10:00,73.6,45.0,30.28,SW,229,9.0,12.0,36,0.00,,,0.00,Wunderground v.1.15,2013-03-14 18:10:00,
2013-03-14 13:15:00,73.7,45.8,30.28,SSW,203,8.0,12.0,37,0.00,,,0.00,Wunderground v.1.15,2013-03-14 18:15:00,
2013-03-14 13:20:00,73.5,45.6,30.28,SSW,208,9.0,9.0,37,0.00,,,0.00,Wunderground v.1.15,2013-03-14 18:20:00,
2013-03-14 13:25:00,73.3,46.2,30.28,SSW,210,9.0,9.0,38,0.00,,,0.00,Wunderground v.1.15,2013-03-14 18:25:00,
2013-03-14 13:30:00,73.8,46.6,30.28,SW,233,9.0,9.0,38,0.00,,,0.00,Wunderground v.1.15,2013-03-14 18:30:00,
2013-03-14 13:35:00,74.6,46.6,30.28,SSW,197,8.0,10.0,37,0.00,,,0.00,Wunderground v.1.15,2013-03-14 18:35:00,
2013-03-14 13:45:00,74.7,46.0,30.27,SW,230,10.0,11.0,36,0.00,,,0.00,Wunderground v.1.15,2013-03-14 18:45:00,
2013-03-14 13:50:00,74.9,45.4,30.27,SSW,211,9.0,9.0,35,0.00,,,0.00,Wunderground v.1.15,2013-03-14 18:50:00,
2013-03-14 13:55:00,74.8,46.1,30.26,South,177,8.0,10.0,36,0.00,,,0.00,Wunderground v.1.15,2013-03-14 18:55:00,
2013-03-14 14:00:00,75.4,46.6,30.26,South,188,8.0,8.0,36,0.00,,,0.00,Wunderground v.1.15,2013-03-14 19:00:00,
2013-03-14 14:10:00,75.2,44.9,30.26,SSW,192,10.0,10.0,34,0.00,,,0.00,Wunderground v.1.15,2013-03-14 19:10:00,
2013-03-14 14:15:00,75.7,46.1,30.25,South,179,9.0,13.0,35,0.00,,,0.00,Wunderground v.1.15,2013-03-14 19:15:00,
2013-03-14 14:25:00,75.7,46.1,30.24,SE,142,10.0,13.0,35,0.00,,,0.00,Wunderground v.1.15,2013-03-14 19:25:00,
2013-03-14 14:30:00,76.3,46.6,30.24,SSE,165,8.0,8.0,35,0.00,,,0.00,Wunderground v.1.15,2013-03-14 19:30:00,
2013-03-14 14:35:00,76.9,46.4,30.24,SSE,161,8.0,8.0,34,0.00,,,0.00,Wunderground v.1.15,2013-03-14 19:35:00,
2013-03-14 14:40:00,76.2,45.0,30.23,SSE,167,9.0,9.0,33,0.00,,,0.00,Wunderground v.1.15,2013-03-14 19:40:00,
2013-03-14 14:45:00,76.3,46.6,30.23,South,190,9.0,9.0,35,0.00,,,0.00,Wunderground v.1.15,2013-03-14 19:45:00,
2013-03-14 14:55:00,76.7,47.0,30.22,SSW,195,7.0,8.0,35,0.00,,,0.00,Wunderground v.1.15,2013-03-14 19:55:00,
2013-03-14 15:00:00,77.5,46.1,30.22,South,188,8.0,8.0,33,0.00,,,0.00,Wunderground v.1.15,2013-03-14 20:00:00,
2013-03-14 15:10:00,78.0,46.6,30.21,SSW,209,8.0,10.0,33,0.00,,,0.00,Wunderground v.1.15,2013-03-14 20:10:00,
2013-03-14 15:15:00,77.7,46.3,30.21,SSW,198,9.0,10.0,33,0.00,,,0.00,Wunderground v.1.15,2013-03-14 20:15:00,
2013-03-14 15:20:00,77.3,46.7,30.21,South,170,10.0,11.0,34,0.00,,,0.00,Wunderground v.1.15,2013-03-14 20:20:00,
2013-03-14 15:25:00,77.3,45.9,30.21,South,181,10.0,11.0,33,0.00,,,0.00,Wunderground v.1.15,2013-03-14 20:25:00,
2013-03-14 15:35:00,77.2,46.7,30.21,SSW,198,10.0,14.0,34,0.00,,,0.00,Wunderground v.1.15,2013-03-14 20:35:00,
2013-03-14 15:40:00,77.7,46.3,30.21,ESE,115,10.0,13.0,33,0.00,,,0.00,Wunderground v.1.15,2013-03-14 20:40:00,
2013-03-14 15:45:00,77.7,46.3,30.21,SSW,207,10.0,16.0,33,0.00,,,0.00,Wunderground v.1.15,2013-03-14 20:45:00,
2013-03-14 15:50:00,77.2,46.7,30.21,SSW,197,10.0,10.0,34,0.00,,,0.00,Wunderground v.1.15,2013-03-14 20:50:00,
2013-03-14 16:00:00,78.4,47.7,30.20,SSW,193,8.0,11.0,34,0.00,,,0.00,Wunderground v.1.15,2013-03-14 21:00:00,
2013-03-14 16:10:00,78.3,46.8,30.20,SW,221,8.0,8.0,33,0.00,,,0.00,Wunderground v.1.15,2013-03-14 21:10:00,
2013-03-14 16:15:00,78.4,46.9,30.19,SSW,192,8.0,11.0,33,0.00,,,0.00,Wunderground v.1.15,2013-03-14 21:15:00,
2013-03-14 16:25:00,78.3,46.8,30.19,SSW,211,9.0,9.0,33,0.00,,,0.00,Wunderground v.1.15,2013-03-14 21:25:00,
2013-03-14 16:30:00,78.4,46.1,30.19,South,177,8.0,9.0,32,0.00,,,0.00,Wunderground v.1.15,2013-03-14 21:30:00,
2013-03-14 16:35:00,78.5,45.3,30.19,South,175,8.0,9.0,31,0.00,,,0.00,Wunderground v.1.15,2013-03-14 21:35:00,
2013-03-14 16:40:00,78.2,45.9,30.19,South,175,9.0,11.0,32,0.00,,,0.00,Wunderground v.1.15,2013-03-14 21:40:00,
2013-03-14 16:50:00,78.3,45.2,30.18,SSW,209,10.0,10.0,31,0.00,,,0.00,Wunderground v.1.15,2013-03-14 21:50:00,
2013-03-14 17:00:00,78.4,46.1,30.17,SSE,167,8.0,14.0,32,0.00,,,0.00,Wunderground v.1.15,2013-03-14 22:00:00,
2013-03-14 17:10:00,77.9,45.7,30.17,South,174,10.0,10.0,32,0.00,,,0.00,Wunderground v.1.15,2013-03-14 22:10:00,
2013-03-14 17:20:00,77.7,45.5,30.17,South,181,10.0,10.0,32,0.00,,,0.00,Wunderground v.1.15,2013-03-14 22:20:00,
2013-03-14 17:25:00,77.8,44.7,30.17,SSE,159,9.0,12.0,31,0.00,,,0.00,Wunderground v.1.15,2013-03-14 22:25:00,
2013-03-14 17:30:00,78.1,45.0,30.17,SSW,201,9.0,9.0,31,0.00,,,0.00,Wunderground v.1.15,2013-03-14 22:30:00,
2013-03-14 17:35:00,77.8,44.7,30.17,SSW,194,9.0,10.0,31,0.00,,,0.00,Wunderground v.1.15,2013-03-14 22:35:00,
2013-03-14 17:40:00,77.6,45.4,30.17,SSW,192,10.0,10.0,32,0.00,,,0.00,Wunderground v.1.15,2013-03-14 22:40:00,
2013-03-14 17:50:00,77.5,45.3,30.17,South,185,8.0,8.0,32,0.00,,,0.00,Wunderground v.1.15,2013-03-14 22:50:00,
2013-03-14 17:55:00,77.4,46.0,30.17,SW,223,9.0,9.0,33,0.00,,,0.00,Wunderground v.1.15,2013-03-14 22:55:00,
2013-03-14 18:00:00,77.3,46.7,30.16,South,184,8.0,10.0,34,0.00,,,0.00,Wunderground v.1.15,2013-03-14 23:00:00,
2013-03-14 18:10:00,77.0,46.5,30.17,South,175,9.0,9.0,34,0.00,,,0.00,Wunderground v.1.15,2013-03-14 23:10:00,
2013-03-14 18:15:00,77.0,46.5,30.17,South,190,8.0,9.0,34,0.00,,,0.00,Wunderground v.1.15,2013-03-14 23:15:00,
2013-03-14 18:20:00,76.8,47.1,30.17,SSE,152,8.0,8.0,35,0.00,,,0.00,Wunderground v.1.15,2013-03-14 23:20:00,
2013-03-14 18:30:00,76.3,46.6,30.17,SSE,157,8.0,8.0,35,0.00,,,0.00,Wunderground v.1.15,2013-03-14 23:30:00,
2013-03-14 18:35:00,76.0,47.1,30.16,SSW,204,9.0,9.0,36,0.00,,,0.00,Wunderground v.1.15,2013-03-14 23:35:00,
2013-03-14 18:40:00,75.8,46.2,30.17,SW,218,9.0,9.0,35,0.00,,,0.00,Wunderground v.1.15,2013-03-14 23:40:00,
2013-03-14 18:45:00,75.4,46.6,30.16,SSW,198,9.0,10.0,36,0.00,,,0.00,Wunderground v.1.15,2013-03-14 23:45:00,
2013-03-14 18:50:00,75.2,47.1,30.16,SSW,196,9.0,9.0,37,0.00,,,0.00,Wunderground v.1.15,2013-03-14 23:50:00,
2013-03-14 19:00:00,74.6,46.6,30.16,SE,143,8.0,8.0,37,0.00,,,0.00,Wunderground v.1.15,2013-03-15 00:00:00,
2013-03-14 19:10:00,73.9,46.7,30.16,South,171,7.0,8.0,38,0.00,,,0.00,Wunderground v.1.15,2013-03-15 00:10:00,
2013-03-14 19:15:00,73.3,46.2,30.16,SSE,153,8.0,8.0,38,0.00,,,0.00,Wunderground v.1.15,2013-03-15 00:15:00,
2013-03-14 19:20:00,72.7,46.3,30.16,SSE,168,7.0,7.0,39,0.00,,,0.00,Wunderground v.1.15,2013-03-15 00:20:00,
2013-03-14 19:25:00,72.2,46.5,30.16,South,169,7.0,10.0,40,0.00,,,0.00,Wunderground v.1.15,2013-03-15 00:25:00,
2013-03-14 19:30:00,71.7,46.1,30.16,South,178,6.0,6.0,40,0.00,,,0.00,Wunderground v.1.15,2013-03-15 00:30:00,
2013-03-14 19:40:00,71.1,46.2,30.16,SSE,164,6.0,9.0,41,0.00,,,0.00,Wunderground v.1.15,2013-03-15 00:40:00,
2013-03-14 19:45:00,70.8,46.6,30.16,South,178,6.0,9.0,42,0.00,,,0.00,Wunderground v.1.15,2013-03-15 00:45:00,
2013-03-14 19:50:00,70.6,46.4,30.16,South,181,7.0,7.0,42,0.00,,,0.00,Wunderground v.1.15,2013-03-15 00:50:00,
2013-03-14 19:55:00,70.3,46.7,30.16,SSE,158,7.0,7.0,43,0.00,,,0.00,Wunderground v.1.15,2013-03-15 00:55:00,
2013-03-14 20:00:00,70.1,46.6,30.16,South,178,6.0,8.0,43,0.00,,,0.00,Wunderground v.1.15,2013-03-15 01:00:00,
2013-03-14 20:10:00,69.6,47.3,30.16,SSE,166,6.0,8.0,45,0.00,,,0.00,Wunderground v.1.15,2013-03-15 01:10:00,
2013-03-14 20:15:00,69.2,46.9,30.16,South,170,6.0,8.0,45,0.00,,,0.00,Wunderground v.1.15,2013-03-15 01:15:00,
2013-03-14 20:25:00,68.6,47.6,30.16,SSE,148,6.0,6.0,47,0.00,,,0.00,Wunderground v.1.15,2013-03-15 01:25:00,
2013-03-14 20:30:00,68.3,47.3,30.16,SSE,160,6.0,9.0,47,0.00,,,0.00,Wunderground v.1.15,2013-03-15 01:30:00,
2013-03-14 20:35:00,67.9,46.9,30.16,SSE,161,6.0,9.0,47,0.00,,,0.00,Wunderground v.1.15,2013-03-15 01:35:00,
2013-03-14 20:40:00,67.6,47.2,30.17,SSE,153,6.0,6.0,48,0.00,,,0.00,Wunderground v.1.15,2013-03-15 01:40:00,
2013-03-14 20:45:00,67.3,46.9,30.17,SE,144,6.0,6.0,48,0.00,,,0.00,Wunderground v.1.15,2013-03-15 01:45:00,
2013-03-14 20:55:00,66.9,46.6,30.16,South,177,6.0,6.0,48,0.00,,,0.00,Wunderground v.1.15,2013-03-15 01:55:00,
2013-03-14 21:00:00,66.7,46.4,30.16,South,178,7.0,10.0,48,0.00,,,0.00,Wunderground v.1.15,2013-03-15 02:00:00,
2013-03-14 21:10:00,66.4,46.1,30.16,SSE,157,7.0,7.0,48,0.00,,,0.00,Wunderground v.1.15,2013-03-15 02:10:00,
2013-03-14 21:15:00,66.3,46.0,30.17,South,171,6.0,7.0,48,0.00,,,0.00,Wunderground v.1.15,2013-03-15 02:15:00,
2013-03-14 21:20:00,66.1,45.8,30.16,SSW,197,5.0,8.0,48,0.00,,,0.00,Wunderground v.1.15,2013-03-15 02:20:00,
2013-03-14 21:25:00,65.9,45.6,30.16,SSE,156,7.0,9.0,48,0.00,,,0.00,Wunderground v.1.15,2013-03-15 02:25:00,
2013-03-14 21:35:00,65.7,45.5,30.16,SSE,168,7.0,8.0,48,0.00,,,0.00,Wunderground v.1.15,2013-03-15 02:35:00,
2013-03-14 21:40:00,65.5,45.3,30.16,South,179,6.0,6.0,48,0.00,,,0.00,Wunderground v.1.15,2013-03-15 02:40:00,
2013-03-14 21:45:00,65.3,45.6,30.16,South,183,6.0,6.0,49,0.00,,,0.00,Wunderground v.1.15,2013-03-15 02:45:00,
2013-03-14 21:50:00,65.2,45.5,30.16,South,174,6.0,7.0,49,0.00,,,0.00,Wunderground v.1.15,2013-03-15 02:50:00,
2013-03-14 21:55:00,65.0,45.4,30.16,SSE,161,6.0,7.0,49,0.00,,,0.00,Wunderground v.1.15,2013-03-15 02:55:00,
2013-03-14 22:00:00,64.8,45.7,30.16,South,175,6.0,8.0,50,0.00,,,0.00,Wunderground v.1.15,2013-03-15 03:00:00,
2013-03-14 22:10:00,64.5,45.4,30.16,SSE,163,6.0,6.0,50,0.00,,,0.00,Wunderground v.1.15,2013-03-15 03:10:00,
2013-03-14 22:15:00,64.3,45.8,30.16,South,183,6.0,10.0,51,0.00,,,0.00,Wunderground v.1.15,2013-03-15 03:15:00,
2013-03-14 22:20:00,64.1,45.6,30.16,South,175,6.0,6.0,51,0.00,,,0.00,Wunderground v.1.15,2013-03-15 03:20:00,
2013-03-14 22:30:00,64.0,45.5,30.16,South,174,7.0,7.0,51,0.00,,,0.00,Wunderground v.1.15,2013-03-15 03:30:00,
2013-03-14 22:35:00,63.9,45.9,30.16,SSE,157,7.0,8.0,52,0.00,,,0.00,Wunderground v.1.15,2013-03-15 03:35:00,
2013-03-14 22:45:00,63.5,45.6,30.16,SSE,164,7.0,7.0,52,0.00,,,0.00,Wunderground v.1.15,2013-03-15 03:45:00,
2013-03-14 22:50:00,63.3,45.9,30.16,South,183,7.0,8.0,53,0.00,,,0.00,Wunderground v.1.15,2013-03-15 03:50:00,
2013-03-14 23:00:00,63.0,45.6,30.16,South,176,7.0,7.0,53,0.00,,,0.00,Wunderground v.1.15,2013-03-15 04:00:00,
2013-03-14 23:05:00,63.0,45.6,30.16,SSE,161,7.0,7.0,53,0.00,,,0.00,Wunderground v.1.15,2013-03-15 04:05:00,
2013-03-14 23:10:00,62.9,45.5,30.16,South,173,7.0,7.0,53,0.00,,,0.00,Wunderground v.1.15,2013-03-15 04:10:00,
2013-03-14 23:15:00,62.9,45.5,30.16,SSE,167,7.0,8.0,53,0.00,,,0.00,Wunderground v.1.15,2013-03-15 04:15:00,
2013-03-14 23:20:00,62.7,45.8,30.16,South,182,7.0,7.0,54,0.00,,,0.00,Wunderground v.1.15,2013-03-15 04:20:00,
2013-03-14 23:25:00,62.6,45.7,30.16,South,184,7.0,7.0,54,0.00,,,0.00,Wunderground v.1.15,2013-03-15 04:25:00,
2013-03-14 23:30:00,62.5,45.6,30.16,SSE,168,7.0,8.0,54,0.00,,,0.00,Wunderground v.1.15,2013-03-15 04:30:00,
2013-03-14 23:40:00,62.1,45.7,30.15,SSW,194,7.0,11.0,55,0.00,,,0.00,Wunderground v.1.15,2013-03-15 04:40:00,
2013-03-14 23:45:00,61.9,46.0,30.15,SSE,159,7.0,11.0,56,0.00,,,0.00,Wunderground v.1.15,2013-03-15 04:45:00,
2013-03-14 23:50:00,61.8,45.9,30.15,South,176,7.0,8.0,56,0.00,,,0.00,Wunderground v.1.15,2013-03-15 04:50:00,
2013-03-14 23:55:00,61.7,46.3,30.15,South,184,7.0,8.0,57,0.00,,,0.00,Wunderground v.1.15,2013-03-15 04:55:00,